Regional Weather Roundup
Issued by NWS Charleston, SC

Current Version | Previous Version | Graphics & Text | Print | Product List | Glossary On
Versions: 1 2 3 4 5 6 7 8 9 10 11 12 13 14 15 16 17 18 19 20 21 22 23 24 25 26 27 28 29 30 31 32 33 34 35 36 37 38 39 40 41 42 43 44 45 46 47 48 49 50
000 ASUS42 KCHS 281628 RWRCHS REGIONAL WEATHER ROUNDUP NATIONAL WEATHER SERVICE CHARLESTON SC 1200 PM EDT THU JUL 28 2016 NOTE: "FAIR" INDICATES FEW OR NO CLOUDS BELOW 12,000 FEET WITH NO SIGNIFICANT WEATHER AND/OR OBSTRUCTIONS TO VISIBILITY. NOT ALL STATIONS ARE QUALITY CONTROLLED. USE DATA WITH CAUTION... ESPECIALLY DEWPOINT OBSERVATIONS. SCZ027-030-031-034>040-042>050-281700- ...SOUTHEAST SOUTH CAROLINA... CITY SKY/WX TMP DP RH WIND PRES REMARKS N CHARLESTON MOSUNNY 93 73 52 W12 30.01S HX 102 WATERFRONT PRK N/A 90 74 59 W5 30.00S HX 99 MOUNT PLEASANT FAIR 93 73 52 SW8 30.00F HX 102 JOHNS ISLAND FAIR 93 73 52 W9 30.00F HX 102 PINOPOLIS N/A 90 73 58 SW6 29.93F HX 98 MONCKS CORNER FAIR 90 68 48 SW8 29.99F HX 93 SUMMERVILLE FAIR 93 72 49 W6 30.01F HX 100 BEAUFORT MCAS MOSUNNY 95 70 44 W12G21 30.01F HX 101 BEAUFORT ARPT FAIR 91 72 52 W10G18 30.01F HX 98 HILTON HEAD IS SUNNY 97 73 46 W9 30.03 HX 107 WALTERBORO MOSUNNY 91 70 49 SW7 30.02S HX 97 ALLENDALE NOT AVBL ...SOUTHERN MIDLANDS AND PEE DEE... CITY SKY/WX TMP DP RH WIND PRES REMARKS GEORGETOWN NOT AVBL KINGSTREE FAIR 91 70 49 W8 29.98F HX 97 ORANGEBURG SUNNY 92 71 50 SW14G21 30.00F HX 98 BARNWELL NOT AVBL AIKEN FAIR 90 68 48 W13 30.04F HX 93 MANNING FAIR 91 70 49 W9 29.98F HX 97 COLUMBIA MOSUNNY 96 67 38 W16G23 29.97F HX 100 SUMTER SUNNY 92 71 50 S13G22 29.96 HX 97 FLORENCE SUNNY 92 70 48 W8 29.97F HX 97 MYRTLE BEACH SUNNY 93 70 46 W12 29.99F HX 99 N MYRTLE BEACH SUNNY 93 71 48 W9 29.97F HX 100 $$ GAZ063-065-086>088-099>101-113>116-118-119-134>141-150-281700- ...SOUTHEAST GEORGIA... CITY SKY/WX TMP DP RH WIND PRES REMARKS SAVANNAH ARPT MOSUNNY 94 71 47 VRB6 30.02F HX 101 HUNTER AAF SUNNY 93 76 57 SW8 30.00 HX 104 FORT STEWART SUNNY 92 71 50 SW9 30.01 HX 99 STATESBORO SUNNY 91 74 56 W9G18 30.04S HX 100 SYLVANIA NOT AVBL CLAXTON FAIR 93 72 51 W10G22 30.03F HX 100 ...CSRA...CENTRAL AND FAR SOUTHEAST GEORGIA... CITY SKY/WX TMP DP RH WIND PRES REMARKS THOMSON NOT AVBL AUGUSTA-BUSH SUNNY 93 67 42 W15 29.99F HX 96 AUGUSTA-DANIEL SUNNY 93 68 43 VRB7G18 30.02S HX 97 SWAINSBORO FAIR 91 68 46 W15G23 30.05S HX 95 VIDALIA MOSUNNY 93 66 40 NW10G18 30.04F HX 96 EASTMAN FAIR 92 53 26 W12G22 30.07F HAZLEHURST FAIR 94 70 45 CALM 30.04F HX 100 ALMA SUNNY 93 67 42 SW12 30.05F HX 96 WAYCROSS SUNNY 98 69 39 NW9 30.05F HX 104 JESUP FAIR 95 73 49 W7 30.04F HX 105 BAXLEY FAIR 93 73 52 SW12 30.04F HX 102 BRUNSWICK SUNNY 95 73 49 W7G17 30.04F HX 105 SAINT SIMONS SUNNY 93 71 48 SW10 30.04F HX 100 $$ SCZ027-028-034-036>038-045-046-048>050-GAZ119-141-281700- ...LAKE AND SUPPLEMENTAL COASTAL OBSERVATIONS... STATION/POSITION TIME TEMP WIND PRES WAVE SWELL AIR SEA DIR/SP/G HT/PER HT/PER/DIR (UTC) (F) (DEG/KT/KT) (MB) (FT/S) (FT/S/D) WINYAH BAY 1545 90 280/ 8 1015.0S LAKE MURRAY 1500 86 250/ 13/ 16 1014.9F ACE BASIN NERRS 1500 89 270/ 3 1017.0S FORT PULASKI 1600 92 87 240/ 6/ 9 1017.1F SAPELO ISLAND 1600 92 250/ 8 1017.0F $$ ANZ835-935-AMZ111-154-330-350-352-354-370-450-454-472-281700- ...C-MAN AND BUOY OBSERVATIONS... STATION/POSITION TIME TEMP WIND PRES WAVE SWELL AIR SEA DIR/SP/G HT/PER HT/PER/DIR (UTC) (F) (DEG/KT/KT) (MB) (FT/S) (FT/S/D) BUOY 41004 1550 85 86 260/ 10/ 12 1016.1F 4/ 6 3/220/ 6 BUOY 41008 1550 86 87 290/ 2/ 4 1017.5F 2/ 4 2/180/ 4 FOLLY BEACH CMAN 1600 92 240/ 7/ 10 1016.3F CAPERS NEARSHORE 1508 87 84 280/ 6/ 8 1016.3F FRIPP NEARSHORE 1608 87 87 250/ 8/ 10 1016.0F STATION/POSITION TIME TEMP WIND PRES WAVE SWELL AIR SEA DIR/SP/G HT/PER HT/PER/DIR (UTC) (F) (DEG/KT/KT) (MB) (FT/S) (FT/S/D) 5E ST. MARYS GA 1601 87 N/A 1/ 8 FRYING PAN BUOY 1600 85 85 260/ 12/ 14 1015.0F BUOY 41025 1550 85 85 230/ 14/ 16 1013.7F 2/ 8 2/150/ 8 CAPE LOOKOUT NC 1600 86 240/ 10/ 12 1013.7F BUOY 41002 1550 83 85 250/ 8/ 10 1016.7F 3/ 6 3/270/ 6 BUOY 41010 1520 85 87 260/ 8/ 10 1018.9R ST AUGUSTINE FL 1600 84 85 30/ 8/ 9 1019.1F $$

USA.gov is the U.S. government's official web portal to all federal, state and local government web resources and services.